"Pseudo-MPEC" for P20V11H

Created 2019 Dec 13 0:07:10 UT using Find_Orb

Click here for an explanation of pseudo-MPECs

 
 Astrometry: 
     P20V11H  C2019 11 29[A0TAQB[Etm#0vw,GVmT,WC`%but#0o4ek?E3[ZX/M6?#gKJCsY)F52
     P20V11H  C2019 11 29Pi/e?]hO-V:xO910sCsFY8I!ND7-(Acq*N6BqfOMZM#N^gG[aHoSF52
     P20V11H  C2019 11 29KpqSnb:v]$HBR8dIX9Q9f.A$uh_6j.jp$;IsXdI;hq]t0!xh:)[ZF52
     P20V11H  C2019 11 2978fER#5`G_eb/8@sa6;3MiCOAeCJG$;#p(HH+8/RwNn`f5Y'%N:,F52
     P20V11H KC2019 11 30r7[9#Y$]Y'Sa*VFvexs9mZY\m`;v!Gnl)ao%MS_U`9G5'EbtlvS(K88
     P20V11H KC2019 11 30j:C@ok4aNO1DU^wnm]n`;u[;^VaZ/j$AstrometryIgD22Z:bE^qK88
     P20V11H KC2019 11 30][e+?YksugTj%0Q9@Aricpbu)v6EAN$0'/):redacted;U5vVYUAL01
     P20V11H KC2019 11 301na,f*o]FE@B5?=c5vM_V0:2Fji%E0j:KwZUFqVkkR0pDElq;+(LL01
     P20V11H KC2019 11 30F:L6]+6GvPrMd(s\8?'jy8`C7,oS8wY8k+()jPfH#m3_AIw`Pg_BL01
     P20V11H KC2019 11 30(]Z4,g)FrN+UWusbv?//$P2UjbBP+$g?ms,sV,F*7!ft$(JClY!vL01
     P20V11H KC2019 11 30EVg.RqmW82$1rwg$wKoxA5Myrwv1w:V-[`,1qDwu/ILP'JVvwfOw157
     P20V11H KC2019 11 30^'s8KpHXRgr8xC7PFyEw'I-WK*CU[[6/]NZ.Pl`=eRpbiF'jyAZOL01
     P20V11H KC2019 11 30NlTXic:Ky#b']pX)0OncE1,E8vEr=Y!kK/$;srfLu(T2yf;/;dLaL01
     P20V11H KC2019 11 30uY`g/+_Me:rjIv+vHKICTWUSCq^[iy0:weE68dPe/y;:vdfya@V=157
     P20V11H KC2019 12 01syhi7#Xk34+d*lIPWXOMr%k8$RXZI+3ku%n-p[BUyv_yhbO@Y'm8C47
     P20V11H KC2019 12 01r+=JQNIe?xDh,:#No#$.lq,Fk?M^WEDNJbxeEqdi_p]=x,@:vHe(C47
     P20V11H KC2019 12 01oWGBo%h9S8U3jA2a+!!U8SD8/94WX=L5I_C7RQ).MOQh4,CiEavCC47
     P20V11H KC2019 12 01.99074 06 35 13.02 +48 51 20.6    ~CBKM 20.2 RqNEOCP970
     P20V11H KC2019 12 02.00594 06 35 12.31 +48 51 26.9    ~CBKM 20.5 RqNEOCP970
     P20V11H KC2019 12 02.03640706 35 10.76 +48 51 38.8    ~CBKM 19.3 GVNEOCPJ95
     P20V11H KC2019 12 02.05204206 35 10.14 +48 51 45.7    ~CBKM 19.5 GVNEOCPJ95
     P20V11H KC2019 12 02.06790506 35 09.39 +48 51 52.4    ~CBKM       VNEOCPJ95
     P20V11H KC2019 12 02S+\h;+C*#liG]vRf*pm3G[GT%jS@@vtK3bA(Gd2JVVKmR#Y6tIubK88
     P20V11H KC2019 12 02J)A:\aZY5_FQZNxE:#UpNI,\lZ=;U%?_3u;G.Q,T(A([fC^umfxJK88
     P20V11H KC2019 12 02r5,R2b1+!1?Pf_WM9:nBu4?3cfyb6Lw-X)st:$OKCQ0ecclick7$K88
     P20V11H KC2019 12 02#+Rsse\`Dvju]#$Vw['C$-OhLl%*Id+!]$@@8;here]:R`r/7kj4K63
     P20V11H KC2019 12 02H%=7Q/p\2[A3ry-8FW3)KeCwt4h-WA2N28(J=u86tENlE_%(fordK63
     P20V11H KC2019 12 02EKs`*lma3YjEw('QREj[!jcGi#'rALC]y]hk*)$ds#;U+G.PMRe(K63
     P20V11H KC2019 12 03BNP2+W^M][0\?RN#\,A/0]e;*MEW%0`^jhjGLq*-'@Zn*pUKYebxT12
     P20V11H ^C2019 12 03.56367806 34 02.178+49 02 20.58   ~CBKM 20.74GVNEOCP568
     P20V11H ^C2019 12 03.56486506 34 02.108+49 02 21.02   ~CBKM 20.64GVNEOCP568
     P20V11H ^C2019 12 03.56604806 34 02.035+49 02 21.44   ~CBKM 20.42GVNEOCP568
     P20V11H KC2019 12 03lKK$+5-s.u=/!hm.p3i*\sT7x3af\-7aeBv))IkXAY/GBY51cq^qK88
     P20V11H KC2019 12 03b\_CKQb;p_kh:explanationE!5ZEGVX\gv-KmobR3+Wg6@(-YsaK88
     P20V11H KC2019 12 04!h,#,7.m[j5WR`$GW5.4x.__A2CT-y2m64!*IF?ZxY_y\p4D^kvmK88
     P20V11H KC2019 12 04P\h\1qC1)7!ql+u8$Uj^:jtd$II:pyP^p3Jg05JG6u:vp,Lw8@A2C10
     P20V11H KC2019 12 04+y*TIE$Obrb29s!ct89h4/Oh5L'0Gm;FxIowMrLijiV*WG6I`Y7JC10
     P20V11H KC2019 12 04.9ZaI'.',gw]no08_ynC;%E+O+df/rFI,aLgpkoV2l:[aJs#gxFCC10
     P20V11H KC2019 12 04#u(h8`;m$A4N2)*yuDZ6n-kqtii@2mpn5f`u(!B,CW4/`?.6cB2OH36
     P20V11H KC2019 12 04q]#:Mxtnu/Z[^7[#487CRV,B@NI,$ti'5Y;jM6SaL8$cs'wertqOH36
     P20V11H KC2019 12 04:IU=U37DnL;NB_U29q^+u!XVRCNM:W-.K5)=4xC)?h[R'Rjf'FD7H36
     P20V11H KC2019 12 04xgf%\wgD$)Jm3A'ed0k*yL6ZYG`LEx%g^#;KGs/qgB8n-W%R;X$QK51
     P20V11H KC2019 12 04l71mx89P=HU)=[*7jVXfHM%_%@=]Kdu]WMupWlvYGYv(dgr@E8heK51
     P20V11H KC2019 12 04Hejh]NnG#Q$PLuaK@e_HI*tC)3ecx3OCV2KJ3N!7X'f?El_dQU2TK88
     P20V11H KC2019 12 049-wCtb`rP5o,!@04H1Zlly7^8UinhC-O@*I]kugEs\?]JhHPH:CQK88
     P20V11H KC2019 12 05[:,K.NnWiFZ70mrU@.t#XK/ee,Apg[Vlj+a`b*,wdx-WJbQ26TjS850
     P20V11H KC2019 12 05Yyrx_9nMtJ?/Z$L1I(cV9grjy.xCaWC3/\L#/!()?k=D=\/fLvX9850
     P20V11H KC2019 12 05nl#!522,BoXyXY[;SM3wjI`1g2-y%qY#`Qis]1BeOF(s)YR?O?+\T12
     P20V11H  C2019 12 07.44827 06 30 53.07 +49 27 53.6    ~CBKM       VNEOCPI52
     P20V11H  C2019 12 07.45383 06 30 52.74 +49 27 55.7    ~CBKM 20.6 GVNEOCPI52
     P20V11H  C2019 12 07.46796 06 30 52.00 +49 28 00.7    ~CBKM 21.4 GVNEOCPI52

Station data:
(157) Frasso Sabino  (N42.227537 E12.811700)  Italy.
(568) Mauna Kea  (N19.826116 W155.472200)  US/Hawaii.
(850) Cordell-Lorenz Observatory, Sewanee  (N35.204094 W85.919800)
   US/Tennessee. 0.3-m Schmidt-Cassegrain.
(970) Chelmsford  (N51.744716 E0.495400)  UK.  Observer N. James. 0.28-m f/10
   Schmidt-Cassegrain + CCD.
(C10) Maisoncelles  (N48.717713 E3.426220)  France.
(C47) Nonndorf  (N48.786797 E15.235600)  Austria.
(F52) Pan-STARRS 2, Haleakala  (N20.707384 W156.255910)  US/Hawaii. 1.8-m
   Ritchey-Chrétien + CCD.
(H36) Sandlot Observatory, Scranton  (N38.797693 W95.706400)  US/Kansas.
   Observer G. Hug. 0.56-m reflector + CCD.
(I52) Steward Observatory, Mt. Lemmon Station  (N32.442547 W110.788920)
   US/Arizona.  Observers T. A. Pruyne, B. M. Africano, E. J. Christensen, G.
   A. Farneth, D. C. Fuls, A. R. Gibbs, A. D. Grauer, H. Gröller, J. A.
   Johnson, R. A. Kowalski, S. M. Larson, G. J. Leonard, D. Rankin, R. L.
   Seaman, F. C. Shelly. 1.0-m reflector + CCD.
(J95) Great Shefford  (N51.474969 W1.447003)  UK.  Observer P. Birtwhistle.
   0.40-m f/6.0 Schmidt-Cassegrain + CCD.
(K51) Osservatorio del Celado, Castello Tesino  (N46.029412 E11.657900)
   Italy.
(K63) G. Pascoli Observatory, Castelvecchio Pascoli  (N44.082410 E10.462000)
   Italy.
(K88) GINOP-KHK, Piszkéstető  (N47.917622 E19.893600)  Hungary.  Observer K.
   Sárneczky. 0.60-m Schmidt + CCD.
(L01) Višnjan Observatory, Tičan  (N45.290900 E13.749300)  Croatia.
   Observers K. Korlević, E. Pettarin. Measurer E. Pettarin. 1.0-m f/2.9
   reflector + CCD.
(T12) Mauna Kea-UH/Tholen NEO Follow-Up (2.24-m)  (N19.822991 W155.469434)
   US/Hawaii.  Observers D. Fohring, D. Hung, Y. Ramanjooloo, Z. Claytor, D.
   J. Tholen. 2.24-m University of Hawaii reflector.

Orbital elements:  P20V11H
   Perihelion 2019 May 7.856479 +/- 7.94 TT = 20:33:19 (JD 2458611.356479)
Epoch 2019 Dec  7.0 TT = JDT 2458824.5   Ju: 0.1795           AutoNEOCP
M  21.58075189 +/- 0.50             (J2000 ecliptic)
n   0.10124986 +/- 0.00142          Peri.   18.67115 +/- 1.8
a   4.55903674 +/- 0.0428           Node    35.43177 +/- 0.24
e   0.2678095 +/- 0.0115            Incl.   23.46242 +/- 0.08
P   9.73                   H 15.2   G  0.15   U  8.4  
q 3.33808308 +/- 0.0226    Q 5.77999040 +/- 0.106
From 51 observations 2019 Nov. 29-Dec. 7; mean residual 0".63
Residuals in arcseconds: 
191129 F52  1.2+  .13+    191201 970  .52+  .68+    191204 K88  .26-  .17+    
191129 F52  .98+  .49+    191202 970  .25+  .45+    191204 C10  1.5-  .06-    
191129 F52  1.2+  .74+    191202 J95  1.6-  .70-    191204 C10  .69-  .24-    
191129 F52  .49+  .58+    191202 J95  .73-  .47-    191204 C10  1.4-  1.0-    
191130 K88  .18+  .34+    191202 J95  1.1-  .53-    191204 H36  1.2-  .40-    
191130 K88  .77+  .20-    191202 K88  .00   .33-    191204 H36  .21+  .61+    
191130 L01  .23+  .77-    191202 K88  .59-  .27-    191204 H36  1.9-  .27+    
191130 L01  .20+  .06-    191202 K88  .87-  .11-    191204 K51  .78-  .34-    
191130 L01  .69+  .57-    191202 K63  .57-  .65+    191204 K51  .31-  .26+    
191130 L01  .61+  .20+    191202 K63  .81-  .67+    191204 K88  1.1-  .67-    
191130 157  .19-  .22+    191202 K63  1.0-  .20+    191204 K88  1.2-  .32-    
191130 L01  .05-  .01+    191203 T12  .76+  .24+    191205 850  1.2-  .71-    
191130 L01  .82+  .13+    191203 568  .53+  .21+    191205 850  .17-  .22+    
191130 157  .40-  .12+    191203 568  .40+  .16+    191205 T12  .12+  .02+    
191201 C47  .30+  .13+    191203 568  .24+  .10+    191207 I52  .42-  .30-    
191201 C47  .23+  .26+    191203 K88  .13-  .20-    191207 I52  .78-  .26-    
191201 C47  .38+  .28+    191203 K88  .54-  .02-    191207 I52  .73-  .47-    

Ephemerides (geocentric):
Date (UTC) HH   RA              Dec         delta   r     elong  mag " sig PA
---- -- -- --  -------------   -----------  ------ ------ -----  --- ---- ---
2019 12 13 00  06 25 51.744   +50 00 07.38  2.6123 3.4997 150.0 20.6 2.10  36
2019 12 13 01  06 25 49.361   +50 00 20.64  2.6122 3.4998 150.0 20.6 2.12  36
2019 12 13 02  06 25 46.977   +50 00 33.88  2.6122 3.4998 150.0 20.6 2.14  36
2019 12 13 03  06 25 44.590   +50 00 47.10  2.6121 3.4999 150.1 20.6 2.16  36
2019 12 13 04  06 25 42.203   +50 01 00.30  2.6121 3.4999 150.1 20.6 2.17  36
2019 12 13 05  06 25 39.813   +50 01 13.48  2.6120 3.5000 150.1 20.6 2.19  36
2019 12 13 06  06 25 37.422   +50 01 26.64  2.6119 3.5001 150.1 20.6 2.21  36
2019 12 13 07  06 25 35.030   +50 01 39.78  2.6119 3.5001 150.1 20.6 2.23  36
2019 12 13 08  06 25 32.635   +50 01 52.90  2.6118 3.5002 150.2 20.6 2.25  36
2019 12 13 09  06 25 30.240   +50 02 06.00  2.6118 3.5002 150.2 20.6 2.27  36
2019 12 13 10  06 25 27.842   +50 02 19.08  2.6117 3.5003 150.2 20.6 2.29  36
2019 12 13 11  06 25 25.443   +50 02 32.14  2.6117 3.5003 150.2 20.6 2.31  36
2019 12 13 12  06 25 23.043   +50 02 45.18  2.6116 3.5004 150.2 20.6 2.33  35
2019 12 13 13  06 25 20.641   +50 02 58.20  2.6116 3.5005 150.2 20.6 2.35  35
2019 12 13 14  06 25 18.237   +50 03 11.20  2.6115 3.5005 150.3 20.6 2.36  35
2019 12 13 15  06 25 15.832   +50 03 24.19  2.6114 3.5006 150.3 20.6 2.38  35
2019 12 13 16  06 25 13.426   +50 03 37.15  2.6114 3.5006 150.3 20.6 2.40  35
2019 12 13 17  06 25 11.017   +50 03 50.09  2.6113 3.5007 150.3 20.6 2.42  35
2019 12 13 18  06 25 08.608   +50 04 03.01  2.6113 3.5008 150.3 20.6 2.44  35
2019 12 13 19  06 25 06.196   +50 04 15.91  2.6112 3.5008 150.4 20.6 2.46  35
2019 12 13 20  06 25 03.784   +50 04 28.80  2.6112 3.5009 150.4 20.6 2.48  35
2019 12 13 21  06 25 01.369   +50 04 41.66  2.6111 3.5009 150.4 20.6 2.50  35
2019 12 13 22  06 24 58.953   +50 04 54.50  2.6111 3.5010 150.4 20.6 2.52  35
2019 12 13 23  06 24 56.536   +50 05 07.32  2.6110 3.5011 150.4 20.6 2.54  35
2019 12 14 00  06 24 54.117   +50 05 20.12  2.6110 3.5011 150.4 20.6 2.56  35
2019 12 14 01  06 24 51.697   +50 05 32.91  2.6109 3.5012 150.5 20.6 2.58  35
2019 12 14 02  06 24 49.275   +50 05 45.67  2.6109 3.5012 150.5 20.6 2.60  35
2019 12 14 03  06 24 46.852   +50 05 58.41  2.6108 3.5013 150.5 20.6 2.62  35
2019 12 14 04  06 24 44.427   +50 06 11.13  2.6108 3.5013 150.5 20.6 2.64  35
2019 12 14 05  06 24 42.001   +50 06 23.83  2.6108 3.5014 150.5 20.6 2.66  35
2019 12 14 06  06 24 39.573   +50 06 36.51  2.6107 3.5015 150.5 20.6 2.69  35
2019 12 14 07  06 24 37.144   +50 06 49.18  2.6107 3.5015 150.6 20.6 2.71  35
2019 12 14 08  06 24 34.713   +50 07 01.82  2.6106 3.5016 150.6 20.6 2.73  35
2019 12 14 09  06 24 32.281   +50 07 14.44  2.6106 3.5016 150.6 20.6 2.75  35
2019 12 14 10  06 24 29.847   +50 07 27.04  2.6105 3.5017 150.6 20.6 2.77  35
2019 12 14 11  06 24 27.412   +50 07 39.62  2.6105 3.5018 150.6 20.6 2.79  35
2019 12 14 12  06 24 24.975   +50 07 52.18  2.6104 3.5018 150.7 20.6 2.81  35
2019 12 14 13  06 24 22.537   +50 08 04.72  2.6104 3.5019 150.7 20.6 2.83  35
2019 12 14 14  06 24 20.098   +50 08 17.24  2.6104 3.5019 150.7 20.6 2.85  34
2019 12 14 15  06 24 17.657   +50 08 29.74  2.6103 3.5020 150.7 20.6 2.87  34
2019 12 14 16  06 24 15.214   +50 08 42.22  2.6103 3.5020 150.7 20.6 2.89  34
2019 12 14 17  06 24 12.771   +50 08 54.68  2.6102 3.5021 150.7 20.6 2.92  34
2019 12 14 18  06 24 10.325   +50 09 07.11  2.6102 3.5022 150.7 20.6 2.94  34
2019 12 14 19  06 24 07.879   +50 09 19.53  2.6102 3.5022 150.8 20.6 2.96  34
2019 12 14 20  06 24 05.431   +50 09 31.93  2.6101 3.5023 150.8 20.6 2.98  34
2019 12 14 21  06 24 02.981   +50 09 44.31  2.6101 3.5023 150.8 20.6 3.00  34
2019 12 14 22  06 24 00.530   +50 09 56.66  2.6100 3.5024 150.8 20.6 3.02  34
2019 12 14 23  06 23 58.078   +50 10 09.00  2.6100 3.5025 150.8 20.6 3.05  34